Hourly Weather Lukovskaya

Today, 7 May, Friday

Time Temperature Precipitation Wind Pressure Humidity
00:00 +9°C° 0 mm 2 mps 748 mmHg 70%
01:00 +8°C° 0 mm 2 mps 748 mmHg 72%
02:00 +8°C° 0 mm 2 mps 748 mmHg 75%
03:00 +9°C° 0 mm 1 mps 748 mmHg 78%
04:00 +9°C° 0 mm 1 mps 748 mmHg 78%
05:00 +10°C° 0 mm 1 mps 749 mmHg 78%
06:00 +9°C° 0 mm 0 mps 749 mmHg 79%
07:00 +12°C° 0 mm 1 mps 749 mmHg 73%
08:00 +14°C° 0 mm 1 mps 749 mmHg 68%
09:00 +16°C° 0 mm 2 mps 750 mmHg 63%
10:00 +17°C° 0 mm 2 mps 750 mmHg 58%
11:00 +19°C° 0 mm 2 mps 750 mmHg 54%
12:00 +20°C° 0 mm 2 mps 750 mmHg 49%
13:00 +21°C° 0 mm 2 mps 750 mmHg 47%
14:00 +23°C° 0 mm 2 mps 750 mmHg 45%
15:00 +24°C° 0 mm 2 mps 750 mmHg 42%
16:00 +23°C° 0 mm 2 mps 750 mmHg 47%
17:00 +22°C° 0 mm 1 mps 750 mmHg 52%
18:00 +22°C° 0 mm 1 mps 750 mmHg 56%
19:00 +20°C° 0 mm 1 mps 751 mmHg 58%
20:00 +17°C° 0 mm 0 mps 751 mmHg 60%
21:00 +15°C° 0 mm 0 mps 751 mmHg 62%
22:00 +14°C° 0 mm 0 mps 751 mmHg 63%
23:00 +14°C° 0 mm 0 mps 751 mmHg 65%

Tomorrow, 8 May, Saturday

Time Temperature Precipitation Wind Pressure Humidity
00:00 +14°C° 0 mm 1 mps 751 mmHg 66%
01:00 +14°C° 0 mm 1 mps 751 mmHg 69%
02:00 +13°C° 0 mm 1 mps 751 mmHg 71%
03:00 +13°C° 0 mm 1 mps 751 mmHg 73%
04:00 +13°C° 0 mm 1 mps 751 mmHg 73%
05:00 +14°C° 0 mm 1 mps 751 mmHg 73%
06:00 +14°C° 0 mm 1 mps 751 mmHg 73%
07:00 +16°C° 0 mm 1 mps 750 mmHg 67%
08:00 +18°C° 0 mm 2 mps 750 mmHg 61%
09:00 +20°C° 0 mm 3 mps 750 mmHg 54%
10:00 +22°C° 0 mm 4 mps 750 mmHg 51%
11:00 +23°C° 0 mm 5 mps 749 mmHg 48%
12:00 +25°C° 0 mm 5 mps 749 mmHg 44%
13:00 +25°C° 0 mm 5 mps 748 mmHg 43%
14:00 +26°C° 0 mm 5 mps 748 mmHg 41%
15:00 +26°C° 0 mm 5 mps 748 mmHg 39%
16:00 +23°C° 0 mm 5 mps 747 mmHg 46%
17:00 +22°C° 0 mm 4 mps 747 mmHg 52%
18:00 +20°C° 0 mm 3 mps 747 mmHg 58%
19:00 +18°C° 0 mm 3 mps 747 mmHg 63%
20:00 +17°C° 0 mm 3 mps 747 mmHg 69%
21:00 +14°C° 0 mm 3 mps 747 mmHg 75%
22:00 +15°C° 0 mm 2 mps 747 mmHg 78%
23:00 +14°C° 0 mm 2 mps 746 mmHg 81%

Day after tomorrow, 9 May, Sunday

Time Temperature Precipitation Wind Pressure Humidity
00:00 +13°C° 0 mm 2 mps 746 mmHg 83%
01:00 +13°C° 0 mm 1 mps 746 mmHg 85%
02:00 +12°C° 0 mm 1 mps 745 mmHg 87%
03:00 +12°C° 0 mm 1 mps 745 mmHg 88%
04:00 +13°C° 0 mm 1 mps 745 mmHg 87%
05:00 +13°C° 0 mm 1 mps 745 mmHg 85%
06:00 +12°C° 0 mm 0 mps 745 mmHg 84%
07:00 +15°C° 0 mm 1 mps 745 mmHg 79%
08:00 +17°C° 0 mm 2 mps 745 mmHg 73%
09:00 +18°C° 0 mm 3 mps 745 mmHg 68%
10:00 +20°C° 0 mm 3 mps 745 mmHg 63%
11:00 +21°C° 0 mm 3 mps 744 mmHg 59%
12:00 +24°C° 0 mm 3 mps 744 mmHg 54%
13:00 +21°C° 0 mm 6 mps 745 mmHg 59%
14:00 +18°C° 0 mm 9 mps 745 mmHg 64%
15:00 +15°C° 0 mm 12 mps 746 mmHg 69%
16:00 +13°C° 0.5 mm 11 mps 748 mmHg 75%
17:00 +9°C° 0.5 mm 10 mps 749 mmHg 81%
18:00 +7°C° 0.5 mm 9 mps 751 mmHg 87%
19:00 +6°C° 0.7 mm 8 mps 751 mmHg 87%
20:00 +6°C° 0.7 mm 8 mps 752 mmHg 86%
21:00 +6°C° 0.7 mm 7 mps 753 mmHg 86%
22:00 +7°C° 0.2 mm 6 mps 754 mmHg 86%
23:00 +7°C° 0.2 mm 5 mps 754 mmHg 86%

10 May, Monday

Time Temperature Precipitation Wind Pressure Humidity
00:00 +7°C° 0.2 mm 4 mps 754 mmHg 87%
01:00 +7°C° 0 mm 4 mps 754 mmHg 85%
02:00 +7°C° 0 mm 5 mps 754 mmHg 83%
03:00 +7°C° 0 mm 5 mps 754 mmHg 81%
04:00 +7°C° 0 mm 5 mps 754 mmHg 82%
05:00 +7°C° 0 mm 5 mps 754 mmHg 82%
06:00 +7°C° 0 mm 4 mps 754 mmHg 82%
07:00 +9°C° 0 mm 5 mps 754 mmHg 72%
08:00 +10°C° 0 mm 5 mps 754 mmHg 62%
09:00 +13°C° 0 mm 6 mps 753 mmHg 52%
10:00 +14°C° 0 mm 6 mps 753 mmHg 48%
11:00 +15°C° 0 mm 6 mps 752 mmHg 44%
12:00 +16°C° 0 mm 6 mps 752 mmHg 39%
13:00 +16°C° 0 mm 6 mps 752 mmHg 41%
14:00 +16°C° 0 mm 6 mps 752 mmHg 43%
15:00 +16°C° 0 mm 6 mps 751 mmHg 44%
16:00 +14°C° 0 mm 5 mps 752 mmHg 52%
17:00 +13°C° 0 mm 5 mps 752 mmHg 60%
18:00 +12°C° 0 mm 4 mps 752 mmHg 68%
19:00 +11°C° 0.2 mm 4 mps 753 mmHg 73%
20:00 +10°C° 0.2 mm 4 mps 753 mmHg 78%
21:00 +9°C° 0.2 mm 3 mps 753 mmHg 83%
22:00 +9°C° 0.3 mm 3 mps 753 mmHg 84%
23:00 +8°C° 0.3 mm 3 mps 753 mmHg 85%

11 May, Tuesday

Time Temperature Precipitation Wind Pressure Humidity
00:00 +8°C° 0.3 mm 2 mps 752 mmHg 85%
01:00 +8°C° 0.1 mm 2 mps 752 mmHg 84%
02:00 +9°C° 0.1 mm 1 mps 752 mmHg 82%
03:00 +9°C° 0.1 mm 1 mps 752 mmHg 81%
04:00 +9°C° 0 mm 1 mps 752 mmHg 80%
05:00 +9°C° 0 mm 1 mps 752 mmHg 80%
06:00 +9°C° 0 mm 1 mps 752 mmHg 79%
07:00 +10°C° 0 mm 2 mps 752 mmHg 75%
08:00 +11°C° 0 mm 4 mps 752 mmHg 70%
09:00 +12°C° 0 mm 5 mps 751 mmHg 66%
10:00 +13°C° 0 mm 5 mps 751 mmHg 62%
11:00 +14°C° 0 mm 5 mps 750 mmHg 58%
12:00 +15°C° 0 mm 5 mps 750 mmHg 53%
13:00 +15°C° 0 mm 4 mps 750 mmHg 52%
14:00 +17°C° 0 mm 4 mps 750 mmHg 50%
15:00 +17°C° 0 mm 4 mps 749 mmHg 49%
16:00 +17°C° 0 mm 3 mps 749 mmHg 53%
17:00 +17°C° 0 mm 2 mps 750 mmHg 57%
18:00 +16°C° 0 mm 1 mps 750 mmHg 61%
19:00 +15°C° 0 mm 1 mps 750 mmHg 64%
20:00 +14°C° 0 mm 2 mps 750 mmHg 67%
21:00 +11°C° 0 mm 3 mps 750 mmHg 70%
22:00 +10°C° 0 mm 2 mps 750 mmHg 74%
23:00 +10°C° 0 mm 2 mps 750 mmHg 77%

12 May, Wednesday

Time Temperature Precipitation Wind Pressure Humidity
00:00 +9°C° 0 mm 2 mps 750 mmHg 81%
01:00 +8°C° 0 mm 2 mps 750 mmHg 83%
02:00 +9°C° 0 mm 1 mps 750 mmHg 85%
03:00 +9°C° 0 mm 1 mps 750 mmHg 87%
04:00 +9°C° 0 mm 1 mps 750 mmHg 86%
05:00 +9°C° 0 mm 1 mps 750 mmHg 86%
06:00 +10°C° 0 mm 1 mps 751 mmHg 85%
07:00 +12°C° 0 mm 2 mps 751 mmHg 79%
08:00 +12°C° 0 mm 3 mps 751 mmHg 72%
09:00 +14°C° 0 mm 3 mps 750 mmHg 65%
10:00 +15°C° 0 mm 4 mps 750 mmHg 61%
11:00 +17°C° 0 mm 4 mps 750 mmHg 57%
12:00 +19°C° 0 mm 5 mps 750 mmHg 53%
13:00 +19°C° 0 mm 5 mps 749 mmHg 53%
14:00 +19°C° 0 mm 4 mps 749 mmHg 54%
15:00 +19°C° 0 mm 4 mps 749 mmHg 54%
16:00 +19°C° 0 mm 4 mps 749 mmHg 57%
17:00 +18°C° 0 mm 4 mps 749 mmHg 60%
18:00 +18°C° 0 mm 3 mps 749 mmHg 63%
19:00 +17°C° 0 mm 3 mps 749 mmHg 67%
20:00 +14°C° 0 mm 3 mps 749 mmHg 70%
21:00 +13°C° 0 mm 3 mps 749 mmHg 73%
22:00 +12°C° 0 mm 3 mps 749 mmHg 75%
23:00 +13°C° 0 mm 2 mps 749 mmHg 77%
Show more

We Need Your Consent

Meteoprog and our Service Providers may store and access personal data such as cookies, device identifiers or other similar technologies on your device and process such data to personalise content and ads, as well as provide social media features and to analyse the traffic.

  • Store and/or access information on your device

    Cookies, device identifiers or other information can be stored or accessed on your device for the purposes indicated above.

  • Personalised ads and content, ad and content measurement, audience insights, and products development

    Ads and content can be personalised based on a profile. More data can be added to better personalise ads and content. Ad and content performance can be measured. Insights about the audience who saw the ads and content can be derived. Such data can be used to develop or improve user’s experience, systems and software.

By clicking ‘I Agree’ you will allow the use of indicated cookies, device identifiers, web beacons or other similar technologies. Your settings can be changed in the browser on your device.

For certain purposes, legitimate interests may be relied on, rather than consent. You can read more about this in our Privacy and Cookie Policy.